owner,sensor,date,latitude,longitude,vertical_datum,wind_speed,wind_to_direction,wind_speed_of_gust,qcFlag 
ADCP,ioos:station:wmo:42370:1,2011-06-01T00:00:00Z,27.3220,-90.5360,78.7,7.4,15.0,99.0,'11111222,11111222,11144222' 
ADCP,ioos:station:wmo:42370:1,2011-06-01T00:20:00Z,27.3220,-90.5360,78.7,7.7,17.0,99.0,'11111222,11111222,11144222' 
ADCP,ioos:station:wmo:42370:1,2011-06-01T00:40:00Z,27.3220,-90.5360,78.7,7.8,19.0,99.0,'11111222,11111222,11144222' 
ADCP,ioos:station:wmo:42370:1,2011-06-01T01:00:00Z,27.3220,-90.5360,78.7,8.4,20.0,99.0,'11111222,11111222,11144222' 
ADCP,ioos:station:wmo:42370:1,2011-06-01T01:20:00Z,27.3220,-90.5360,78.7,7.6,23.0,99.0,'11111222,11111222,11144222' 
ADCP,ioos:station:wmo:42370:1,2011-06-01T01:40:00Z,27.3220,-90.5360,78.7,7.8,19.0,99.0,'11111222,11111222,11144222' 
ADCP,ioos:station:wmo:42370:1,2011-06-01T02:00:00Z,27.3220,-90.5360,78.7,7.2,20.0,99.0,'11111222,11111222,11144222' 
ADCP,ioos:station:wmo:42370:1,2011-06-01T02:20:00Z,27.3220,-90.5360,78.7,6.9,22.0,99.0,'11111222,11111222,11144222' 
ADCP,ioos:station:wmo:42370:1,2011-06-01T02:40:00Z,27.3220,-90.5360,78.7,7.7,21.0,99.0,'11111222,11111222,11144222' 
ADCP,ioos:station:wmo:42370:1,2011-06-01T03:00:00Z,27.3220,-90.5360,78.7,7.7,24.0,99.0,'11111222,11111222,11144222' 
ADCP,ioos:station:wmo:42370:1,2011-06-01T03:20:00Z,27.3220,-90.5360,78.7,7.8,22.0,99.0,'11111222,11111222,11144222' 
ADCP,ioos:station:wmo:42370:1,2011-06-01T04:00:00Z,27.3220,-90.5360,78.7,8.2,23.0,99.0,'11111222,11111222,11144222' 
ADCP,ioos:station:wmo:42370:1,2011-06-01T04:20:00Z,27.3220,-90.5360,78.7,7.7,22.0,99.0,'11111222,11111222,11144222' 
ADCP,ioos:station:wmo:42370:1,2011-06-01T04:40:00Z,27.3220,-90.5360,78.7,7.2,27.0,99.0,'11111222,11111222,11144222' 
ADCP,ioos:station:wmo:42370:1,2011-06-01T05:00:00Z,27.3220,-90.5360,78.7,5.8,42.0,99.0,'11111222,11111222,11144222' 
ADCP,ioos:station:wmo:42370:1,2011-06-01T05:20:00Z,27.3220,-90.5360,78.7,4.3,53.0,99.0,'11111222,11111222,11144222' 
ADCP,ioos:station:wmo:42370:1,2011-06-01T05:40:00Z,27.3220,-90.5360,78.7,4.2,53.0,99.0,'11111222,11111222,11144222' 
ADCP,ioos:station:wmo:42370:1,2011-06-01T06:00:00Z,27.3220,-90.5360,78.7,4.3,50.0,99.0,'11111222,11111222,11144222' 
ADCP,ioos:station:wmo:42370:1,2011-06-01T06:20:00Z,27.3220,-90.5360,78.7,5.4,43.0,99.0,'11111222,11111222,11144222' 
ADCP,ioos:station:wmo:42370:1,2011-06-01T06:40:00Z,27.3220,-90.5360,78.7,6.0,37.0,99.0,'11111222,11111222,11144222' 
ADCP,ioos:station:wmo:42370:1,2011-06-01T07:00:00Z,27.3220,-90.5360,78.7,5.4,38.0,99.0,'11111222,11111222,11144222' 
ADCP,ioos:station:wmo:42370:1,2011-06-01T07:20:00Z,27.3220,-90.5360,78.7,6.2,33.0,99.0,'11111222,11111222,11144222' 
ADCP,ioos:station:wmo:42370:1,2011-06-01T07:40:00Z,27.3220,-90.5360,78.7,6.1,32.0,99.0,'11111222,11111222,11144222' 
ADCP,ioos:station:wmo:42370:1,2011-06-01T08:00:00Z,27.3220,-90.5360,78.7,5.8,33.0,99.0,'11111222,11111222,11144222' 
ADCP,ioos:station:wmo:42370:1,2011-06-01T08:20:00Z,27.3220,-90.5360,78.7,5.8,31.0,99.0,'11111222,11111222,11144222' 
ADCP,ioos:station:wmo:42370:1,2011-06-01T08:40:00Z,27.3220,-90.5360,78.7,5.8,29.0,99.0,'11111222,11111222,11144222' 
ADCP,ioos:station:wmo:42370:1,2011-06-01T09:00:00Z,27.3220,-90.5360,78.7,5.9,27.0,99.0,'11111222,11111222,11144222' 
ADCP,ioos:station:wmo:42370:1,2011-06-01T09:20:00Z,27.3220,-90.5360,78.7,5.7,27.0,99.0,'11111222,11111222,11144222' 
ADCP,ioos:station:wmo:42370:1,2011-06-01T09:40:00Z,27.3220,-90.5360,78.7,5.5,25.0,99.0,'11111222,11111222,11144222' 
ADCP,ioos:station:wmo:42370:1,2011-06-01T10:00:00Z,27.3220,-90.5360,78.7,4.7,22.0,99.0,'11111222,11111222,11144222' 
ADCP,ioos:station:wmo:42370:1,2011-06-01T10:20:00Z,27.3220,-90.5360,78.7,4.2,23.0,99.0,'11111222,11111222,11144222' 
ADCP,ioos:station:wmo:42370:1,2011-06-01T10:40:00Z,27.3220,-90.5360,78.7,3.8,30.0,99.0,'11111222,11111222,11144222' 
ADCP,ioos:station:wmo:42370:1,2011-06-01T11:00:00Z,27.3220,-90.5360,78.7,4.2,30.0,99.0,'11111222,11111222,11144222' 
ADCP,ioos:station:wmo:42370:1,2011-06-01T11:20:00Z,27.3220,-90.5360,78.7,4.7,101.0,99.0,'11111222,11111222,11144222' 
ADCP,ioos:station:wmo:42370:1,2011-06-01T11:40:00Z,27.3220,-90.5360,78.7,4.9,225.0,99.0,'11111222,11111222,11144222' 
ADCP,ioos:station:wmo:42370:1,2011-06-01T12:00:00Z,27.3220,-90.5360,78.7,5.3,180.0,99.0,'11111222,11111222,11144222' 
ADCP,ioos:station:wmo:42370:1,2011-06-01T12:20:00Z,27.3220,-90.5360,78.7,5.4,172.0,99.0,'11111222,11111222,11144222' 
ADCP,ioos:station:wmo:42370:1,2011-06-01T12:40:00Z,27.3220,-90.5360,78.7,5.7,101.0,99.0,'11111222,11111222,11144222' 
ADCP,ioos:station:wmo:42370:1,2011-06-01T13:00:00Z,27.3220,-90.5360,78.7,6.1,149.0,99.0,'11111222,11111222,11144222' 
ADCP,ioos:station:wmo:42370:1,2011-06-01T13:20:00Z,27.3220,-90.5360,78.7,5.5,112.0,99.0,'11111222,11111222,11144222' 
ADCP,ioos:station:wmo:42370:1,2011-06-01T13:40:00Z,27.3220,-90.5360,78.7,5.2,40.0,99.0,'11111222,11111222,11144222' 
ADCP,ioos:station:wmo:42370:1,2011-06-01T14:00:00Z,27.3220,-90.5360,78.7,5.9,92.0,99.0,'11111222,11111222,11144222' 
ADCP,ioos:station:wmo:42370:1,2011-06-01T14:20:00Z,27.3220,-90.5360,78.7,5.8,92.0,99.0,'11111222,11111222,11144222' 
ADCP,ioos:station:wmo:42370:1,2011-06-01T14:40:00Z,27.3220,-90.5360,78.7,5.7,209.0,99.0,'11111222,11111222,11144222' 
ADCP,ioos:station:wmo:42370:1,2011-06-01T15:00:00Z,27.3220,-90.5360,78.7,5.4,231.0,99.0,'11111222,11111222,11144222' 
ADCP,ioos:station:wmo:42370:1,2011-06-01T15:20:00Z,27.3220,-90.5360,78.7,5.7,309.0,99.0,'11111222,11111222,11144222' 
ADCP,ioos:station:wmo:42370:1,2011-06-01T15:40:00Z,27.3220,-90.5360,78.7,6.4,179.0,99.0,'11111222,11111222,11144222' 
ADCP,ioos:station:wmo:42370:1,2011-06-01T16:00:00Z,27.3220,-90.5360,78.7,5.9,89.0,99.0,'11111222,11111222,11144222' 
ADCP,ioos:station:wmo:42370:1,2011-06-01T16:20:00Z,27.3220,-90.5360,78.7,5.5,121.0,99.0,'11111222,11111222,11144222' 
ADCP,ioos:station:wmo:42370:1,2011-06-01T16:40:00Z,27.3220,-90.5360,78.7,5.0,98.0,99.0,'11111222,11111222,11144222' 
ADCP,ioos:station:wmo:42370:1,2011-06-01T17:20:00Z,27.3220,-90.5360,78.7,5.7,168.0,99.0,'11111222,11111222,11144222' 
ADCP,ioos:station:wmo:42370:1,2011-06-01T17:40:00Z,27.3220,-90.5360,78.7,6.4,264.0,99.0,'11111222,11111222,11144222' 
ADCP,ioos:station:wmo:42370:1,2011-06-01T18:00:00Z,27.3220,-90.5360,78.7,6.3,184.0,99.0,'11111222,11111222,11144222' 
ADCP,ioos:station:wmo:42370:1,2011-06-01T18:20:00Z,27.3220,-90.5360,78.7,6.5,126.0,99.0,'11111222,11111222,11144222' 
ADCP,ioos:station:wmo:42370:1,2011-06-01T18:40:00Z,27.3220,-90.5360,78.7,6.4,136.0,99.0,'11111222,11111222,11144222' 
ADCP,ioos:station:wmo:42370:1,2011-06-01T19:00:00Z,27.3220,-90.5360,78.7,5.3,326.0,99.0,'11111222,11111222,11144222' 
ADCP,ioos:station:wmo:42370:1,2011-06-01T19:20:00Z,27.3220,-90.5360,78.7,6.4,278.0,99.0,'11111222,11111222,11144222' 
ADCP,ioos:station:wmo:42370:1,2011-06-01T19:40:00Z,27.3220,-90.5360,78.7,6.5,35.0,99.0,'11111222,11111222,11144222' 
ADCP,ioos:station:wmo:42370:1,2011-06-01T20:00:00Z,27.3220,-90.5360,78.7,6.3,23.0,99.0,'11111222,11111222,11144222' 
ADCP,ioos:station:wmo:42370:1,2011-06-01T20:20:00Z,27.3220,-90.5360,78.7,5.9,17.0,99.0,'11111222,11111222,11144222' 
ADCP,ioos:station:wmo:42370:1,2011-06-01T20:40:00Z,27.3220,-90.5360,78.7,5.6,20.0,99.0,'11111222,11111222,11144222' 
ADCP,ioos:station:wmo:42370:1,2011-06-01T21:00:00Z,27.3220,-90.5360,78.7,5.8,19.0,99.0,'11111222,11111222,11144222' 
ADCP,ioos:station:wmo:42370:1,2011-06-01T21:20:00Z,27.3220,-90.5360,78.7,5.4,23.0,99.0,'11111222,11111222,11144222' 
ADCP,ioos:station:wmo:42370:1,2011-06-01T21:40:00Z,27.3220,-90.5360,78.7,5.2,19.0,99.0,'11111222,11111222,11144222' 
ADCP,ioos:station:wmo:42370:1,2011-06-01T22:00:00Z,27.3220,-90.5360,78.7,4.8,20.0,99.0,'11111222,11111222,11144222' 
ADCP,ioos:station:wmo:42370:1,2011-06-01T22:20:00Z,27.3220,-90.5360,78.7,3.7,26.0,99.0,'11111222,11111222,11144222' 
ADCP,ioos:station:wmo:42370:1,2011-06-01T23:00:00Z,27.3220,-90.5360,78.7,3.1,102.0,99.0,'11111222,11111222,11144222' 
ADCP,ioos:station:wmo:42370:1,2011-06-01T23:20:00Z,27.3220,-90.5360,78.7,3.0,346.0,99.0,'11111222,11111222,11144222' 
ADCP,ioos:station:wmo:42370:1,2011-06-01T23:40:00Z,27.3220,-90.5360,78.7,2.5,82.0,99.0,'11111222,11111222,11144222' 
ADCP,ioos:station:wmo:42370:1,2011-06-02T00:00:00Z,27.3220,-90.5360,78.7,2.3,81.0,99.0,'11111222,11111222,11144222' 
ADCP,ioos:station:wmo:42370:1,2011-06-02T00:20:00Z,27.3220,-90.5360,78.7,2.5,322.0,99.0,'11111222,11111222,11144222' 
ADCP,ioos:station:wmo:42370:1,2011-06-02T00:40:00Z,27.3220,-90.5360,78.7,2.6,333.0,99.0,'11111222,11111222,11144222' 
ADCP,ioos:station:wmo:42370:1,2011-06-02T01:00:00Z,27.3220,-90.5360,78.7,2.1,328.0,99.0,'11111222,11111222,11144222' 
ADCP,ioos:station:wmo:42370:1,2011-06-02T01:20:00Z,27.3220,-90.5360,78.7,1.6,83.0,99.0,'11111222,11111222,11144222' 
ADCP,ioos:station:wmo:42370:1,2011-06-02T01:40:00Z,27.3220,-90.5360,78.7,1.4,324.0,99.0,'11111222,11111222,11144222' 
ADCP,ioos:station:wmo:42370:1,2011-06-02T02:00:00Z,27.3220,-90.5360,78.7,1.3,293.0,99.0,'11111222,11111222,11144222' 
ADCP,ioos:station:wmo:42370:1,2011-06-02T02:20:00Z,27.3220,-90.5360,78.7,0.7,240.0,99.0,'11111222,11111222,11144222' 
ADCP,ioos:station:wmo:42370:1,2011-06-02T03:00:00Z,27.3220,-90.5360,78.7,1.7,225.0,99.0,'11111222,11111222,11144222' 
ADCP,ioos:station:wmo:42370:1,2011-06-02T03:20:00Z,27.3220,-90.5360,78.7,1.9,228.0,99.0,'11111222,11111222,11144222' 
ADCP,ioos:station:wmo:42370:1,2011-06-02T03:40:00Z,27.3220,-90.5360,78.7,2.1,242.0,99.0,'11111222,11111222,11144222' 
ADCP,ioos:station:wmo:42370:1,2011-06-02T04:20:00Z,27.3220,-90.5360,78.7,2.0,243.0,99.0,'11111222,11111222,11144222' 
ADCP,ioos:station:wmo:42370:1,2011-06-02T04:40:00Z,27.3220,-90.5360,78.7,3.1,232.0,99.0,'11111222,11111222,11144222' 
ADCP,ioos:station:wmo:42370:1,2011-06-02T05:00:00Z,27.3220,-90.5360,78.7,3.4,237.0,99.0,'11111222,11111222,11144222' 
ADCP,ioos:station:wmo:42370:1,2011-06-02T05:20:00Z,27.3220,-90.5360,78.7,3.8,237.0,99.0,'11111222,11111222,11144222' 
ADCP,ioos:station:wmo:42370:1,2011-06-02T05:40:00Z,27.3220,-90.5360,78.7,5.2,247.0,99.0,'11111222,11111222,11144222' 
ADCP,ioos:station:wmo:42370:1,2011-06-02T06:00:00Z,27.3220,-90.5360,78.7,5.3,244.0,99.0,'11111222,11111222,11144222' 
ADCP,ioos:station:wmo:42370:1,2011-06-02T06:20:00Z,27.3220,-90.5360,78.7,5.3,243.0,99.0,'11111222,11111222,11144222' 
ADCP,ioos:station:wmo:42370:1,2011-06-02T07:00:00Z,27.3220,-90.5360,78.7,4.9,239.0,99.0,'11111222,11111222,11144222' 
ADCP,ioos:station:wmo:42370:1,2011-06-02T07:20:00Z,27.3220,-90.5360,78.7,4.5,244.0,99.0,'11111222,11111222,11144222' 
ADCP,ioos:station:wmo:42370:1,2011-06-02T07:40:00Z,27.3220,-90.5360,78.7,3.9,258.0,99.0,'11111222,11111222,11144222' 
ADCP,ioos:station:wmo:42370:1,2011-06-02T08:20:00Z,27.3220,-90.5360,78.7,3.9,288.0,99.0,'11111222,11111222,11144222' 
ADCP,ioos:station:wmo:42370:1,2011-06-02T08:40:00Z,27.3220,-90.5360,78.7,2.1,293.0,99.0,'11111222,11111222,11144222' 
ADCP,ioos:station:wmo:42370:1,2011-06-02T09:00:00Z,27.3220,-90.5360,78.7,5.0,301.0,99.0,'11111222,11111222,11144222' 
ADCP,ioos:station:wmo:42370:1,2011-06-02T09:20:00Z,27.3220,-90.5360,78.7,4.5,312.0,99.0,'11111222,11111222,11144222' 
ADCP,ioos:station:wmo:42370:1,2011-06-02T09:40:00Z,27.3220,-90.5360,78.7,7.2,306.0,99.0,'11111222,11111222,11144222' 
ADCP,ioos:station:wmo:42370:1,2011-06-02T10:00:00Z,27.3220,-90.5360,78.7,7.7,307.0,99.0,'11111222,11111222,11144222' 
ADCP,ioos:station:wmo:42370:1,2011-06-02T10:20:00Z,27.3220,-90.5360,78.7,7.7,307.0,99.0,'11111222,11111222,11144222' 
ADCP,ioos:station:wmo:42370:1,2011-06-02T10:40:00Z,27.3220,-90.5360,78.7,5.3,309.0,99.0,'11111222,11111222,11144222' 
ADCP,ioos:station:wmo:42370:1,2011-06-02T11:00:00Z,27.3220,-90.5360,78.7,4.7,300.0,99.0,'11111222,11111222,11144222' 
ADCP,ioos:station:wmo:42370:1,2011-06-02T11:20:00Z,27.3220,-90.5360,78.7,6.6,301.0,99.0,'11111222,11111222,11144222' 
ADCP,ioos:station:wmo:42370:1,2011-06-02T11:40:00Z,27.3220,-90.5360,78.7,6.0,305.0,99.0,'11111222,11111222,11144222' 
ADCP,ioos:station:wmo:42370:1,2011-06-02T12:20:00Z,27.3220,-90.5360,78.7,6.4,307.0,99.0,'11111222,11111222,11144222' 
ADCP,ioos:station:wmo:42370:1,2011-06-02T12:40:00Z,27.3220,-90.5360,78.7,5.1,290.0,99.0,'11111222,11111222,11144222' 
ADCP,ioos:station:wmo:42370:1,2011-06-02T13:00:00Z,27.3220,-90.5360,78.7,5.9,285.0,99.0,'11111222,11111222,11144222' 
ADCP,ioos:station:wmo:42370:1,2011-06-02T13:20:00Z,27.3220,-90.5360,78.7,6.6,284.0,99.0,'11111222,11111222,11144222' 
ADCP,ioos:station:wmo:42370:1,2011-06-02T13:40:00Z,27.3220,-90.5360,78.7,8.3,286.0,99.0,'11111222,11111222,11144222' 
ADCP,ioos:station:wmo:42370:1,2011-06-02T14:00:00Z,27.3220,-90.5360,78.7,7.4,296.0,99.0,'11111222,11111222,11144222' 
ADCP,ioos:station:wmo:42370:1,2011-06-02T14:20:00Z,27.3220,-90.5360,78.7,6.5,298.0,99.0,'11111222,11111222,11144222' 
ADCP,ioos:station:wmo:42370:1,2011-06-02T14:40:00Z,27.3220,-90.5360,78.7,5.4,318.0,99.0,'11111222,11111222,11144222' 
ADCP,ioos:station:wmo:42370:1,2011-06-02T15:00:00Z,27.3220,-90.5360,78.7,5.1,322.0,99.0,'11111222,11111222,11144222' 
ADCP,ioos:station:wmo:42370:1,2011-06-02T15:20:00Z,27.3220,-90.5360,78.7,5.6,321.0,99.0,'11111222,11111222,11144222' 
ADCP,ioos:station:wmo:42370:1,2011-06-02T15:40:00Z,27.3220,-90.5360,78.7,4.8,330.0,99.0,'11111222,11111222,11144222' 
ADCP,ioos:station:wmo:42370:1,2011-06-02T16:00:00Z,27.3220,-90.5360,78.7,6.2,339.0,99.0,'11111222,11111222,11144222' 
ADCP,ioos:station:wmo:42370:1,2011-06-02T16:20:00Z,27.3220,-90.5360,78.7,6.2,346.0,99.0,'11111222,11111222,11144222' 
ADCP,ioos:station:wmo:42370:1,2011-06-02T16:40:00Z,27.3220,-90.5360,78.7,6.5,110.0,99.0,'11111222,11111222,11144222' 
ADCP,ioos:station:wmo:42370:1,2011-06-02T17:00:00Z,27.3220,-90.5360,78.7,6.3,17.0,99.0,'11111222,11111222,11144222' 
ADCP,ioos:station:wmo:42370:1,2011-06-02T17:20:00Z,27.3220,-90.5360,78.7,6.2,21.0,99.0,'11111222,11111222,11144222' 
ADCP,ioos:station:wmo:42370:1,2011-06-02T17:40:00Z,27.3220,-90.5360,78.7,5.6,21.0,99.0,'11111222,11111222,11144222' 
ADCP,ioos:station:wmo:42370:1,2011-06-02T18:00:00Z,27.3220,-90.5360,78.7,5.8,18.0,99.0,'11111222,11111222,11144222' 
ADCP,ioos:station:wmo:42370:1,2011-06-02T18:20:00Z,27.3220,-90.5360,78.7,5.3,17.0,99.0,'11111222,11111222,11144222' 
ADCP,ioos:station:wmo:42370:1,2011-06-02T19:00:00Z,27.3220,-90.5360,78.7,4.2,31.0,99.0,'11111222,11111222,11144222' 
ADCP,ioos:station:wmo:42370:1,2011-06-02T19:20:00Z,27.3220,-90.5360,78.7,2.7,48.0,99.0,'11111222,11111222,11144222' 
ADCP,ioos:station:wmo:42370:1,2011-06-02T19:40:00Z,27.3220,-90.5360,78.7,3.5,40.0,99.0,'11111222,11111222,11144222' 
ADCP,ioos:station:wmo:42370:1,2011-06-02T20:00:00Z,27.3220,-90.5360,78.7,4.1,40.0,99.0,'11111222,11111222,11144222' 
ADCP,ioos:station:wmo:42370:1,2011-06-02T20:20:00Z,27.3220,-90.5360,78.7,3.8,57.0,99.0,'11111222,11111222,11144222' 
ADCP,ioos:station:wmo:42370:1,2011-06-02T20:40:00Z,27.3220,-90.5360,78.7,4.0,62.0,99.0,'11111222,11111222,11144222' 
ADCP,ioos:station:wmo:42370:1,2011-06-02T21:00:00Z,27.3220,-90.5360,78.7,3.7,61.0,99.0,'11111222,11111222,11144222' 
ADCP,ioos:station:wmo:42370:1,2011-06-02T21:20:00Z,27.3220,-90.5360,78.7,3.7,61.0,99.0,'11111222,11111222,11144222' 
ADCP,ioos:station:wmo:42370:1,2011-06-02T22:00:00Z,27.3220,-90.5360,78.7,5.3,70.0,99.0,'11111222,11111222,11144222' 
ADCP,ioos:station:wmo:42370:1,2011-06-02T22:20:00Z,27.3220,-90.5360,78.7,3.7,62.0,99.0,'11111222,11111222,11144222' 
ADCP,ioos:station:wmo:42370:1,2011-06-02T23:00:00Z,27.3220,-90.5360,78.7,4.0,64.0,99.0,'11111222,11111222,11144222' 
ADCP,ioos:station:wmo:42370:1,2011-06-02T23:20:00Z,27.3220,-90.5360,78.7,5.1,71.0,99.0,'11111222,11111222,11144222' 
ADCP,ioos:station:wmo:42370:1,2011-06-02T23:40:00Z,27.3220,-90.5360,78.7,6.2,74.0,99.0,'11111222,11111222,11144222' 
ADCP,ioos:station:wmo:42370:1,2011-06-03T00:00:00Z,27.3220,-90.5360,78.7,6.1,74.0,99.0,'11111222,11111222,11144222' 
ADCP,ioos:station:wmo:42370:1,2011-06-03T00:20:00Z,27.3220,-90.5360,78.7,5.6,72.0,99.0,'11111222,11111222,11144222' 
ADCP,ioos:station:wmo:42370:1,2011-06-03T00:40:00Z,27.3220,-90.5360,78.7,5.7,73.0,99.0,'11111222,11111222,11144222' 
ADCP,ioos:station:wmo:42370:1,2011-06-03T01:00:00Z,27.3220,-90.5360,78.7,6.1,74.0,99.0,'11111222,11111222,11144222' 
ADCP,ioos:station:wmo:42370:1,2011-06-03T01:20:00Z,27.3220,-90.5360,78.7,6.0,75.0,99.0,'11111222,11111222,11144222' 
ADCP,ioos:station:wmo:42370:1,2011-06-03T01:40:00Z,27.3220,-90.5360,78.7,5.5,73.0,99.0,'11111222,11111222,11144222' 
ADCP,ioos:station:wmo:42370:1,2011-06-03T02:00:00Z,27.3220,-90.5360,78.7,5.9,71.0,99.0,'11111222,11111222,11144222' 
ADCP,ioos:station:wmo:42370:1,2011-06-03T02:20:00Z,27.3220,-90.5360,78.7,5.2,67.0,99.0,'11111222,11111222,11144222' 
ADCP,ioos:station:wmo:42370:1,2011-06-03T02:40:00Z,27.3220,-90.5360,78.7,6.7,73.0,99.0,'11111222,11111222,11144222' 
ADCP,ioos:station:wmo:42370:1,2011-06-03T03:00:00Z,27.3220,-90.5360,78.7,7.1,73.0,99.0,'11111222,11111222,11144222' 
ADCP,ioos:station:wmo:42370:1,2011-06-03T03:20:00Z,27.3220,-90.5360,78.7,5.9,69.0,99.0,'11111222,11111222,11144222' 
ADCP,ioos:station:wmo:42370:1,2011-06-03T03:40:00Z,27.3220,-90.5360,78.7,5.8,69.0,99.0,'11111222,11111222,11144222' 
ADCP,ioos:station:wmo:42370:1,2011-06-03T04:00:00Z,27.3220,-90.5360,78.7,6.1,70.0,99.0,'11111222,11111222,11144222' 
ADCP,ioos:station:wmo:42370:1,2011-06-03T04:20:00Z,27.3220,-90.5360,78.7,4.4,66.0,99.0,'11111222,11111222,11144222' 
ADCP,ioos:station:wmo:42370:1,2011-06-03T04:40:00Z,27.3220,-90.5360,78.7,3.9,61.0,99.0,'11111222,11111222,11144222' 
ADCP,ioos:station:wmo:42370:1,2011-06-03T05:00:00Z,27.3220,-90.5360,78.7,3.7,61.0,99.0,'11111222,11111222,11144222' 
ADCP,ioos:station:wmo:42370:1,2011-06-03T05:20:00Z,27.3220,-90.5360,78.7,3.5,61.0,99.0,'11111222,11111222,11144222' 
ADCP,ioos:station:wmo:42370:1,2011-06-03T05:40:00Z,27.3220,-90.5360,78.7,3.8,60.0,99.0,'11111222,11111222,11144222' 
ADCP,ioos:station:wmo:42370:1,2011-06-03T06:00:00Z,27.3220,-90.5360,78.7,3.6,57.0,99.0,'11111222,11111222,11144222' 
ADCP,ioos:station:wmo:42370:1,2011-06-03T06:20:00Z,27.3220,-90.5360,78.7,3.8,57.0,99.0,'11111222,11111222,11144222' 
ADCP,ioos:station:wmo:42370:1,2011-06-03T06:40:00Z,27.3220,-90.5360,78.7,3.3,60.0,99.0,'11111222,11111222,11144222' 
ADCP,ioos:station:wmo:42370:1,2011-06-03T07:20:00Z,27.3220,-90.5360,78.7,3.3,56.0,99.0,'11111222,11111222,11144222' 
ADCP,ioos:station:wmo:42370:1,2011-06-03T07:40:00Z,27.3220,-90.5360,78.7,3.0,52.0,99.0,'11111222,11111222,11144222' 
ADCP,ioos:station:wmo:42370:1,2011-06-03T08:00:00Z,27.3220,-90.5360,78.7,3.4,50.0,99.0,'11111222,11111222,11144222' 
ADCP,ioos:station:wmo:42370:1,2011-06-03T08:20:00Z,27.3220,-90.5360,78.7,4.0,42.0,99.0,'11111222,11111222,11144222' 
ADCP,ioos:station:wmo:42370:1,2011-06-03T08:40:00Z,27.3220,-90.5360,78.7,5.1,38.0,99.0,'11111222,11111222,11144222' 
ADCP,ioos:station:wmo:42370:1,2011-06-03T09:00:00Z,27.3220,-90.5360,78.7,4.6,42.0,99.0,'11111222,11111222,11144222' 
ADCP,ioos:station:wmo:42370:1,2011-06-03T09:20:00Z,27.3220,-90.5360,78.7,4.1,45.0,99.0,'11111222,11111222,11144222' 
ADCP,ioos:station:wmo:42370:1,2011-06-03T09:40:00Z,27.3220,-90.5360,78.7,3.7,54.0,99.0,'11111222,11111222,11144222' 
ADCP,ioos:station:wmo:42370:1,2011-06-03T10:00:00Z,27.3220,-90.5360,78.7,4.0,57.0,99.0,'11111222,11111222,11144222' 
ADCP,ioos:station:wmo:42370:1,2011-06-03T10:20:00Z,27.3220,-90.5360,78.7,4.1,59.0,99.0,'11111222,11111222,11144222' 
ADCP,ioos:station:wmo:42370:1,2011-06-03T10:40:00Z,27.3220,-90.5360,78.7,4.0,59.0,99.0,'11111222,11111222,11144222' 
ADCP,ioos:station:wmo:42370:1,2011-06-03T11:00:00Z,27.3220,-90.5360,78.7,3.9,58.0,99.0,'11111222,11111222,11144222' 
ADCP,ioos:station:wmo:42370:1,2011-06-03T11:20:00Z,27.3220,-90.5360,78.7,3.8,55.0,99.0,'11111222,11111222,11144222' 
ADCP,ioos:station:wmo:42370:1,2011-06-03T11:40:00Z,27.3220,-90.5360,78.7,4.1,54.0,99.0,'11111222,11111222,11144222' 
ADCP,ioos:station:wmo:42370:1,2011-06-03T12:00:00Z,27.3220,-90.5360,78.7,4.7,49.0,99.0,'11111222,11111222,11144222' 
ADCP,ioos:station:wmo:42370:1,2011-06-03T12:20:00Z,27.3220,-90.5360,78.7,4.0,51.0,99.0,'11111222,11111222,11144222' 
ADCP,ioos:station:wmo:42370:1,2011-06-03T12:40:00Z,27.3220,-90.5360,78.7,4.3,57.0,99.0,'11111222,11111222,11144222' 
ADCP,ioos:station:wmo:42370:1,2011-06-03T13:00:00Z,27.3220,-90.5360,78.7,4.5,48.0,99.0,'11111222,11111222,11144222' 
ADCP,ioos:station:wmo:42370:1,2011-06-03T13:20:00Z,27.3220,-90.5360,78.7,4.9,44.0,99.0,'11111222,11111222,11144222' 
ADCP,ioos:station:wmo:42370:1,2011-06-03T13:40:00Z,27.3220,-90.5360,78.7,5.3,42.0,99.0,'11111222,11111222,11144222' 
ADCP,ioos:station:wmo:42370:1,2011-06-03T14:00:00Z,27.3220,-90.5360,78.7,6.0,38.0,99.0,'11111222,11111222,11144222' 
ADCP,ioos:station:wmo:42370:1,2011-06-03T14:20:00Z,27.3220,-90.5360,78.7,7.3,36.0,99.0,'11111222,11111222,11144222' 
ADCP,ioos:station:wmo:42370:1,2011-06-03T14:40:00Z,27.3220,-90.5360,78.7,7.3,37.0,99.0,'11111222,11111222,11144222' 
ADCP,ioos:station:wmo:42370:1,2011-06-03T15:00:00Z,27.3220,-90.5360,78.7,6.4,38.0,99.0,'11111222,11111222,11144222' 
ADCP,ioos:station:wmo:42370:1,2011-06-03T15:20:00Z,27.3220,-90.5360,78.7,5.3,42.0,99.0,'11111222,11111222,11144222' 
ADCP,ioos:station:wmo:42370:1,2011-06-03T15:40:00Z,27.3220,-90.5360,78.7,5.4,40.0,99.0,'11111222,11111222,11144222' 
ADCP,ioos:station:wmo:42370:1,2011-06-03T16:00:00Z,27.3220,-90.5360,78.7,7.1,36.0,99.0,'11111222,11111222,11144222' 
ADCP,ioos:station:wmo:42370:1,2011-06-03T16:20:00Z,27.3220,-90.5360,78.7,7.7,34.0,99.0,'11111222,11111222,11144222' 
ADCP,ioos:station:wmo:42370:1,2011-06-03T16:40:00Z,27.3220,-90.5360,78.7,8.2,32.0,99.0,'11111222,11111222,11144222' 
ADCP,ioos:station:wmo:42370:1,2011-06-03T17:00:00Z,27.3220,-90.5360,78.7,8.2,33.0,99.0,'11111222,11111222,11144222' 
ADCP,ioos:station:wmo:42370:1,2011-06-03T17:20:00Z,27.3220,-90.5360,78.7,7.6,35.0,99.0,'11111222,11111222,11144222' 
ADCP,ioos:station:wmo:42370:1,2011-06-03T17:40:00Z,27.3220,-90.5360,78.7,7.6,36.0,99.0,'11111222,11111222,11144222' 
ADCP,ioos:station:wmo:42370:1,2011-06-03T18:00:00Z,27.3220,-90.5360,78.7,7.5,34.0,99.0,'11111222,11111222,11144222' 
ADCP,ioos:station:wmo:42370:1,2011-06-03T18:20:00Z,27.3220,-90.5360,78.7,6.9,33.0,99.0,'11111222,11111222,11144222' 
ADCP,ioos:station:wmo:42370:1,2011-06-03T18:40:00Z,27.3220,-90.5360,78.7,6.4,34.0,99.0,'11111222,11111222,11144222' 
ADCP,ioos:station:wmo:42370:1,2011-06-03T19:00:00Z,27.3220,-90.5360,78.7,3.7,48.0,99.0,'11111222,11111222,11144222' 
ADCP,ioos:station:wmo:42370:1,2011-06-03T19:20:00Z,27.3220,-90.5360,78.7,4.1,68.0,99.0,'11111222,11111222,11144222' 
ADCP,ioos:station:wmo:42370:1,2011-06-03T19:40:00Z,27.3220,-90.5360,78.7,3.8,55.0,99.0,'11111222,11111222,11144222' 
ADCP,ioos:station:wmo:42370:1,2011-06-03T20:00:00Z,27.3220,-90.5360,78.7,3.8,52.0,99.0,'11111222,11111222,11144222' 
ADCP,ioos:station:wmo:42370:1,2011-06-03T20:20:00Z,27.3220,-90.5360,78.7,3.6,53.0,99.0,'11111222,11111222,11144222' 
ADCP,ioos:station:wmo:42370:1,2011-06-03T20:40:00Z,27.3220,-90.5360,78.7,3.5,57.0,99.0,'11111222,11111222,11144222' 
ADCP,ioos:station:wmo:42370:1,2011-06-03T21:00:00Z,27.3220,-90.5360,78.7,3.5,52.0,99.0,'11111222,11111222,11144222' 
ADCP,ioos:station:wmo:42370:1,2011-06-03T21:20:00Z,27.3220,-90.5360,78.7,4.1,42.0,99.0,'11111222,11111222,11144222' 
ADCP,ioos:station:wmo:42370:1,2011-06-03T21:40:00Z,27.3220,-90.5360,78.7,4.8,39.0,99.0,'11111222,11111222,11144222' 
ADCP,ioos:station:wmo:42370:1,2011-06-03T22:00:00Z,27.3220,-90.5360,78.7,3.9,46.0,99.0,'11111222,11111222,11144222' 
ADCP,ioos:station:wmo:42370:1,2011-06-03T22:20:00Z,27.3220,-90.5360,78.7,5.1,39.0,99.0,'11111222,11111222,11144222' 
ADCP,ioos:station:wmo:42370:1,2011-06-03T22:40:00Z,27.3220,-90.5360,78.7,4.8,41.0,99.0,'11111222,11111222,11144222' 
ADCP,ioos:station:wmo:42370:1,2011-06-03T23:20:00Z,27.3220,-90.5360,78.7,5.3,38.0,99.0,'11111222,11111222,11144222' 
ADCP,ioos:station:wmo:42370:1,2011-06-03T23:40:00Z,27.3220,-90.5360,78.7,4.2,44.0,99.0,'11111222,11111222,11144222' 